Tracking 22879 objects as of 22-Apr-2021
HD Live streaming from Space Station
objects crossing your sky now

FLOCK 3K 12

Track FLOCK 3K 12 now!
10-day predictions
FLOCK 3K 12 is classified as:


NORAD ID: 43903
Int'l Code: 2018-111AD
Perigee: 474.4 km
Apogee: 504.0 km
Inclination: 97.2 °
Period: 94.2 minutes
Semi major axis: 6860 km
RCS: Unknown
Launch date: December 27, 2018
Source: United States (US)
Launch site: VOSTOCHNY COSMODROME (VOSTO)
aabbcc
Your satellite tracking list
Your tracking list is empty




NASA's NSSDC Master Catalog

Two Line Element Set (TLE):
1 43903U 18111AD  21111.76382806  .00005160  00000-0  19086-3 0  9996
2 43903  97.2405   8.9961 0021576 127.9408 232.3786 15.27906351129072
Source of the keplerian elements: AFSPC